HULIANWANG DIGUI-145

导读 | 豆包AI

HULIANWANG DIGUI-145是中国于北京时间2026年1月13日成功发射的低轨卫星。该卫星依托中国航天成熟技术体系打造,服务于低轨互联网星座建设,将提供全球覆盖的高速宽带通信服务,增强天地一体化网络通信能力,助力物联网、偏远地区通信等领域发展,推动中国空间信息基础设施建设迈上新台阶。

Basic Information
目录编号:
67443
目录名称:
HULIANWANG DIGUI-145
国际标识:
2026-007J
轨道中心:
EARTH
卫星名称:
HULIANWANG DIGUI-145
卫星全名:
HULIANWANG DIGUI-145
卫星状态:
在轨 (已飞行132 天)
发射日期:
2026-01-13 UTC
国别 :
中国 (CN)
星等 :
--
Orbit Information
数据来源 国际轨道数据 AOE轨道数据
星历时间 2026-05-24T02:08:33+0800
1天前
查看轨道信息
2026-05-24T03:00:00+0800
1天前
查看轨道信息
半长轴 7527.45km 7527.449km
偏心率 0.0000831 0.0000029
轨道倾角 50.007° 50.009°
近地点辐角 275.974° 216.854°
升交点赤经 173.121° 172.993°
平近点角 84.103° 314.318°
近地点 1148.687km 1149.29km
远地点 1149.939km 1149.334km
周期 108.326分钟 108.326分钟
每日圈数 13.293244 13.293247
Detailed Information
使用方式:
暂无
2D Orbit Map
3D Orbit Map
Orbit Altitude Analysis Chart
Orbit Inclination Analysis Chart
Orbit Comprehensive Analysis Chart
View Comprehensive Chart